Location: Bremen
(53.0793°N, 8.8017°E)
Time: 12:11:51
(UTC+01:00)

deb Explorer IX - Pass Details

Date: 11 December 2021
Orbit: 544 x 1082 km, 38.8° (Epoch: 14 January)

Event Time Altitude Azimuth Distance (km) Brightness Sun altitude
Rises 09:57:30 0° 242° (WSW) 3,305 ? 8.0°
Reaches altitude 10° 10:01:04 10° 221° (SW) 2,250 ? 8.3°
Maximum altitude 10:04:04 16° 186° (S) 1,801 ? 8.5°
Drops below altitude 10° 10:06:52 10° 149° (SSE) 2,057 ? 8.7°
Sets 10:09:54 0° 127° (SE) 2,874 ? 9.0°
